CAPE
9 20 29 28 13 0 0 0 0 0 0 0 0 0 0 16 7 2 0 0 0 0 0 0 0 0 0 0 0 0 0 0 0 0 0 0 0 0 0 0 0 0 0 0 0
17 11 19 12 37 11 0 0 0 0 0 1 0 0 0 4 6 10 0 0 0 0 0 0 0 0 0 0 0 0 0 0 0 0 0 0 0 0 0 0 0 0 0 0 0
9 8 6 15 14 23 16 0 0 0 0 0 0 2 7 23 0 0 0 0 0 0 0 0 0 0 0 0 0 0 0 0 0 0 0 0 0 0 0 0 0 0 0 0 0
28 21 1 6 11 15 32 13 0 0 0 0 0 18 23 12 0 0 0 0 0 0 0 0 0 0 0 0 0 0 0 0 0 0 0 0 0 0 0 0 0 0 0 0 0
34 29 31 11 11 13 16 38 10 0 0 0 0 33 20 1 0 28 11 0 0 0 0 0 0 0 0 0 0 0 0 0 0 0 0 0 0 0 0 0 0 0 0 0 0
28 26 24 24 24 12 35 25 22 12 0 0 0 46 22 2 0 21 6 16 0 0 0 0 0 0 0 0 0 0 0 0 0 0 0 0 0 0 0 0 0 0 0 0 0
39 38 18 14 28 35 37 29 37 16 10 0 0 35 34 3 7 0 46 54 46 30 0 0 0 0 0 0 0 0 0 0 0 0 0 0 0 0 0 0 0 0 0 0 0
56 38 35 18 18 24 44 66 43 25 12 0 7 13 5 2 1 15 43 15 12 25 39 0 0 0 0 0 0 0 0 0 0 0 0 0 0 0 0 0 0 0 0 0 0
59 50 15 32 15 12 21 48 58 28 26 20 0 0 0 0 0 7 32 19 23 0 4 0 0 0 0 3 12 11 13 7 0 0 0 0 0 0 0 0 0 0 0 0 0
60 45 51 40 35 17 6 38 66 73 22 35 4 0 0 1 3 37 57 43 46 22 4 0 19 1 0 19 4 13 4 6 2 0 0 0 0 0 0 0 0 0 0 0 0
47 38 29 34 32 27 28 30 41 83 26 0 0 0 0 0 24 0 33 32 46 38 13 45 15 0 8 0 3 6 2 0 0 0 0 0 0 0 0 0 0 0 0 0 0
43 53 41 22 28 30 46 14 0 18 8 0 0 0 0 6 3 22 67 20 24 6 21 10 4 0 18 15 7 8 6 0 0 0 0 0 0 0 0 0 0 0 0 0 0
29 39 47 52 15 18 19 0 5 0 0 0 0 0 0 25 0 0 55 5 3 11 11 6 0 0 2 1 7 4 3 0 2 0 0 0 0 0 0 0 0 0 0 0 0
44 45 58 103 31 6 0 0 32 12 25 0 2 3 0 0 2 7 63 15 37 0 9 10 0 0 4 2 0 3 0 6 2 0 1 1 0 0 0 0 0 0 0 0 0
78 66 90 82 4 3 0 0 52 29 35 0 1 0 0 0 0 0 48 43 11 1 13 0 0 0 12 0 0 0 0 0 0 1 2 4 1 0 0 0 0 0 0 0 0
102 75 100 68 17 0 0 2 32 108 45 5 0 0 5 0 0 7 32 45 9 16 15 10 1 6 0 2 0 0 1 3 7 17 20 0 0 0 0 0 0 0 0 0 0
102 105 102 40 1 0 12 26 43 42 2 0 1 2 0 2 3 4 3 3 3 16 1 1 2 0 1 21 19 24 14 9 7 5 1 0 1 0 0 0 0 0 0 0 0
141 119 89 28 1 36 40 5 47 21 0 0 4 1 1 0 6 9 3 1 5 1 0 0 0 0 0 1 10 11 22 4 0 0 0 0 0 0 0 0 0 0 0 0 0
214 55 40 34 28 38 29 0 0 0 0 1 12 14 13 15 1 15 1 0 0 4 0 0 0 0 0 3 5 6 12 0 0 0 0 0 0 0 0 0 0 0 0 0 0
62 47 3 14 52 39 22 0 0 0 0 5 28 6 0 2 3 2 6 0 0 0 3 0 1 0 0 6 21 3 0 3 0 0 0 0 0 0 0 0 0 0 0 0 0
37 32 3 30 41 10 1 2 1 14 13 0 8 0 0 4 0 2 0 0 0 0 2 0 0 0 2 20 3 7 3 5 6 0 0 0 0 0 0 0 0 0 0 0 0
2 3 0 57 9 0 3 0 0 1 56 49 0 0 0 4 0 3 0 0 0 0 0 0 0 0 0 0 0 4 0 0 0 0 0 0 0 0 0 0 0 0 0 0 0
0 2 19 6 3 14 1 0 2 12 17 54 17 0 0 0 0 2 0 0 0 0 0 0 4 0 1 1 0 1 0 0 0 0 0 0 0 0 0 0 0 0 0 0 0
5 5 8 12 0 1 0 0 2 0 12 3 7 0 0 0 0 1 0 0 0 0 0 0 0 0 0 0 0 0 0 0 0 0 0 0 0 0 0 0 0 0 0 0 0
0 0 0 1 0 1 0 0 7 38 0 10 4 1 0 1 0 0 0 0 0 1 7 0 0 0 0 0 0 0 0 0 0 0 0 0 0 0 2 4 3 2 0 0 0
0 0 0 0 0 0 0 0 1 9 4 0 3 0 0 0 0 0 0 0 2 16 14 1 0 0 0 0 0 0 0 0 0 0 0 0 0 0 0 2 0 0 0 0 0
2 0 0 0 0 2 0 0 0 0 0 0 0 1 2 0 0 0 0 0 26 37 38 10 0 0 3 0 0 0 0 0 0 0 0 0 0 0 0 0 0 0 0 0 0
CIN
-16 -4 -5 -7 -6 -0 -0 -0 -0 -0 -0 -0 -0 -0 -0 -2 -6 -0 -0 -0 -0 -0 -0 -0 -0 -0 -0 -0 -0 -0 -0 -0 -0 -0 -0 -0 -0 -0 -0 -0 -0 -0 -0 -0 -0
-12 -20 -7 -12 -3 -6 -0 -0 -0 -0 -0 -4 -0 -0 -0 -12 -2 -1 -0 -0 -0 -0 -0 -0 -0 -0 -0 -0 -0 -0 -0 -0 -0 -0 -0 -0 -0 -0 -0 -0 -0 -0 -0 -0 -0
-14 -22 -34 -19 -17 -8 -8 -0 -0 -0 -0 -0 -0 -6 -9 -10 -0 -0 -0 -0 -0 -0 -0 -0 -0 -0 -0 -0 -0 -0 -0 -0 -0 -0 -0 -0 -0 -0 -0 -0 -0 -0 -0 -0 -0
-2 -6 -12 -28 -22 -13 -7 -11 -0 -0 -0 -0 -0 -17 -9 -14 -0 -1 -0 -0 -0 -0 -0 -0 -0 -0 -0 -0 -0 -0 -0 -0 -0 -0 -0 -0 -0 -0 -0 -0 -0 -0 -0 -0 -0
-4 -4 -5 -15 -22 -18 -15 -6 -15 -0 -0 -0 -0 -15 -5 -0 -3 -65 -28 -0 -0 -0 -0 -0 -0 -0 -0 -0 -0 -0 -0 -0 -0 -0 -0 -0 -0 -0 -0 -0 -0 -0 -0 -0 -0
-5 -10 -9 -10 -11 -22 -7 -7 -12 -22 -0 -0 -0 -11 -1 -0 -0 -61 -45 -27 -0 -2 -0 -0 -0 -0 -0 -0 -0 -0 -0 -0 -0 -0 -0 -0 -0 -0 -0 -0 -0 -0 -0 -0 -0
-4 -9 -15 -16 -10 -9 -12 -15 -7 -21 -26 -0 -0 -5 -0 -1 -15 -0 -29 -27 -20 -17 -0 -0 -0 -0 -0 -0 -0 -0 -0 -0 -0 -0 -0 -0 -0 -0 -0 -0 -0 -0 -0 -0 -0
-1 -13 -12 -20 -11 -8 -9 -5 -11 -15 -25 -10 -22 -2 -0 -1 -11 -31 -14 -17 -43 -50 -25 -0 -0 -0 -0 -0 -0 -0 -4 -0 -0 -0 -0 -0 -0 -0 -0 -0 -0 -0 -0 -0 -0
-2 -7 -16 -18 -20 -15 -10 -5 -15 -18 -18 -14 -0 -0 -0 -0 -0 -17 -18 -17 -27 -0 -98 -0 -0 -0 -0 -15 -12 -26 -7 -17 -0 -0 -0 -0 -0 -0 -0 -0 -0 -0 -0 -0 -0
-5 -6 -3 -11 -17 -14 -20 -17 -15 -5 -12 -10 -11 -0 -0 -0 -3 -13 -38 -35 -23 -19 -19 -0 -11 -1 -0 -5 -1 -2 -15 -17 -10 -0 -0 -0 -0 -0 -0 -0 -0 -0 -0 -0 -0
-6 -10 -14 -13 -17 -17 -9 -2 -0 -0 -29 -0 -0 -0 -0 -0 -9 -0 -22 -21 -8 -5 -0 -2 -0 -0 -0 -6 -6 -11 -9 -0 -0 -0 -0 -0 -0 -0 -0 -0 -0 -0 -0 -0 -0
-5 -2 -14 -23 -20 -24 -14 -0 -0 -25 -18 -0 -0 -0 -0 -27 -0 -4 -20 -2 -1 -0 -1 -5 -0 -0 -3 -6 -3 -2 -4 -4 -1 -0 -0 -0 -0 -0 -0 -0 -0 -0 -0 -0 -0
-10 -3 -6 -13 -23 -16 -13 -0 -13 -0 -5 -0 -0 -0 -0 -13 -6 -0 -5 -1 -0 -2 -5 -1 -0 -0 -2 -3 -2 -3 -3 -1 -3 -0 -0 -0 -0 -0 -0 -0 -0 -0 -0 -0 -0
-29 -5 -5 -1 -5 -27 -0 -0 -17 -22 -3 -0 -0 -1 -0 -0 -1 -24 -14 -16 -0 -0 -2 -3 -0 -0 -3 -0 -0 -1 -0 -20 -20 -1 -0 -1 -0 -0 -0 -0 -0 -0 -0 -0 -0
-6 -19 -1 -5 -2 -1 -0 -0 -15 -12 -2 -1 -0 -0 -0 -0 -0 -0 -33 -8 -3 -1 -3 -0 -0 -0 -1 -0 -0 -0 -0 -0 -0 -0 -1 -2 -3 -0 -0 -0 -0 -0 -0 -0 -0
-2 -31 -2 -2 -9 -0 -0 -34 -6 -10 -6 -13 -0 -0 -2 -0 -0 -1 -7 -12 -12 -1 -8 -4 -9 -9 -0 -4 -0 -0 -1 -4 -8 -0 -1 -0 -0 -0 -0 -0 -0 -0 -0 -0 -0
-14 -16 -3 -10 -0 -0 -42 -20 -7 -11 -4 -0 -0 -0 -0 -0 -3 -9 -0 -0 -0 -3 -1 -0 -0 -0 -11 -1 -6 -4 -1 -1 -10 -1 -0 -0 -9 -0 -0 -0 -0 -0 -0 -0 -0
-12 -9 -6 -16 -1 -7 -8 -77 -6 -15 -37 -0 -1 -0 -0 -0 -1 -4 -1 -1 -0 -1 -0 -0 -0 -0 -0 -0 -1 -0 -0 -3 -5 -0 -0 -0 -0 -0 -0 -0 -0 -0 -0 -0 -0
-3 -2 -10 -10 -19 -7 -16 -6 -0 -0 -0 -14 -72 -19 -0 -1 -0 -0 -0 -0 -0 -2 -0 -0 -2 -0 -0 -3 -1 -4 -14 -0 -0 -0 -0 -0 -0 -0 -0 -0 -0 -0 -0 -0 -0
-3 -0 -0 -10 -24 -0 -1 -0 -0 -0 -0 -14 -28 -18 -5 -0 -0 -1 -0 -0 -0 -0 -4 -0 -3 -0 -0 -5 -0 -0 -1 -1 -0 -0 -0 -0 -0 -0 -0 -0 -0 -0 -0 -0 -0
-0 -0 -2 -8 -4 -0 -7 -1 -23 -49 -1 -0 -13 -5 -0 -0 -0 -0 -0 -0 -0 -2 -3 -0 -0 -0 -10 -0 -15 -3 -2 -4 -1 -0 -0 -0 -0 -0 -0 -0 -0 -0 -0 -0 -0
-0 -1 -0 -0 -0 -2 -7 -3 -0 -74 -11 -2 -0 -0 -0 -1 -1 -1 -0 -0 -0 -0 -0 -3 -0 -0 -0 -0 -1 -15 -0 -0 -0 -0 -0 -0 -0 -0 -0 -0 -0 -0 -0 -0 -0
-0 -1 -0 -3 -0 -17 -48 -0 -35 -2 -26 -3 -14 -0 -0 -0 -1 -2 -0 -0 -0 -0 -0 -0 -3 -0 -2 -0 -0 -0 -0 -0 -0 -0 -0 -0 -0 -0 -0 -0 -0 -0 -0 -0 -0
-1 -3 -0 -0 -0 -13 -0 -0 -10 -18 -45 -0 -21 -0 -0 -0 -0 -1 -0 -0 -0 -0 -0 -0 -0 -0 -0 -0 -0 -0 -0 -0 -0 -0 -0 -0 -0 -0 -0 -0 -0 -0 -0 -0 -0
-1 -0 -0 -0 -0 -4 -0 -0 -35 -10 -0 -0 -0 -7 -0 -6 -1 -0 -0 -0 -0 -23 -25 -0 -0 -0 -0 -0 -0 -0 -0 -0 -0 -0 -0 -0 -0 -0 -0 -0 -0 -0 -0 -0 -0
-0 -0 -0 -0 -0 -0 -0 -0 -82 -94 -6 -0 -3 -0 -0 -0 -0 -0 -0 -0 -0 -10 -10 -13 -0 -0 -0 -0 -0 -0 -0 -0 -0 -0 -0 -0 -0 -0 -0 -5 -0 -0 -0 -0 -0
-25 -0 -0 -0 -1 -0 -0 -0 -0 -0 -0 -0 -0 -1 -8 -0 -0 -0 -0 -0 -232 -101 -69 -52 -0 -0 -5 -0 -0 -0 -0 -0 -0 -0 -4 -0 -0 -0 -0 -0 -0 -0 -0 -0 -0
Wind_Speed
35 34 33 32 31 30 30 30 30 29 28 27 27 26 25 23 22 22 25 19 17 21 23 22 20 21 18 18 17 15 20 21 20 22 21 17 18 17 16 15 15 17 16 17 9
36 35 34 33 31 30 29 30 30 29 28 27 26 26 25 25 27 30 24 22 21 21 20 20 21 23 20 19 18 18 21 20 18 18 19 19 19 19 17 17 18 18 18 13 8
37 36 35 33 32 30 29 28 29 28 29 27 26 25 24 22 32 34 25 22 21 19 19 18 20 20 22 20 20 20 24 19 20 18 19 20 20 20 18 19 18 20 14 9 7
38 37 36 35 33 32 29 28 27 27 27 28 26 24 21 24 39 25 26 23 21 19 19 20 21 23 23 24 22 25 24 22 22 22 22 24 22 24 21 20 19 20 11 8 6
38 37 36 35 34 32 31 28 27 26 27 27 27 23 23 32 35 20 18 18 18 19 21 20 23 23 26 24 26 27 27 26 24 25 26 24 27 26 26 23 25 20 11 8 8
39 38 37 36 35 33 31 29 26 25 25 25 26 24 29 43 25 27 19 12 16 21 22 21 22 21 26 27 26 25 28 30 28 28 27 28 29 25 24 23 24 22 16 12 10
41 39 38 37 35 34 31 29 27 25 25 24 24 26 35 38 23 25 23 22 17 17 23 22 22 22 24 29 26 28 33 31 28 26 28 26 33 28 28 28 30 28 23 18 15
41 39 39 36 35 34 32 29 27 24 23 24 22 27 41 28 30 22 20 24 21 20 19 19 20 23 26 27 28 30 32 38 31 28 27 27 41 31 29 31 31 31 28 24 18
40 39 38 37 35 32 30 28 26 24 22 21 24 28 41 26 29 28 21 21 21 22 20 17 19 25 27 31 35 33 43 38 35 28 29 28 43 35 33 34 37 36 31 27 24
38 36 36 34 33 31 29 26 26 23 21 20 25 30 35 36 28 24 23 19 22 20 25 25 25 31 31 32 46 39 38 38 39 32 33 38 46 42 40 39 38 37 35 33 30
38 35 33 33 32 30 27 24 27 29 30 34 31 34 26 26 22 26 23 21 20 25 31 29 36 43 36 34 35 34 37 40 35 31 36 39 45 45 42 43 43 43 39 37 37
37 36 34 32 32 29 27 35 32 23 34 34 29 33 27 22 29 28 23 29 29 33 28 32 44 37 32 32 36 37 41 41 36 33 35 39 50 48 46 46 41 39 40 38 39
37 37 35 34 31 30 34 37 24 20 30 38 32 32 30 27 31 32 27 30 34 35 33 39 37 31 33 36 38 40 42 40 41 35 36 42 54 48 43 40 38 40 38 37 38
38 38 37 35 35 34 40 32 25 23 39 37 38 34 28 26 34 25 27 27 32 39 34 37 38 31 32 37 35 45 36 38 39 40 48 30 56 47 41 43 42 46 39 38 35
38 37 38 37 35 41 34 29 27 25 57 32 33 24 27 29 25 30 24 29 33 34 30 40 35 36 36 38 31 40 33 38 39 40 40 40 43 49 40 43 41 39 38 34 32
36 36 38 40 38 39 31 28 29 43 54 34 30 35 32 36 29 22 26 23 28 32 32 35 26 29 35 31 28 25 28 30 33 36 50 47 42 53 47 41 37 32 31 24 23
33 34 38 37 45 34 33 32 46 57 36 24 29 34 40 37 34 29 29 32 33 36 39 37 40 31 28 33 28 28 28 37 38 40 50 37 39 44 36 33 27 24 19 16 14
32 34 37 37 37 34 38 45 55 50 38 28 34 34 37 33 36 32 31 34 34 31 30 36 42 36 33 40 34 31 30 36 43 40 38 28 36 36 28 30 30 25 18 15 13
26 32 37 38 34 38 46 60 58 49 44 29 29 34 36 35 34 33 35 35 33 32 35 35 34 24 25 27 26 26 34 27 34 32 34 32 36 38 32 29 24 16 15 13 12
27 29 40 35 34 41 54 60 50 42 36 36 32 27 32 35 33 34 33 35 32 31 29 28 32 30 29 29 28 27 21 26 31 31 32 32 36 33 28 24 19 15 13 11 12
25 29 33 32 36 45 55 57 42 41 34 43 41 36 34 31 32 34 33 28 31 28 27 29 33 32 28 36 35 30 29 31 30 31 36 39 36 31 28 20 16 13 10 10 11
18 24 24 31 43 44 54 48 44 46 45 37 42 37 35 32 33 34 37 34 26 25 29 27 29 39 36 32 32 34 36 34 23 26 31 35 40 29 19 12 11 11 10 10 12
16 20 25 33 47 46 36 48 46 47 47 43 39 37 33 38 37 36 37 28 23 24 25 24 30 33 34 34 29 32 30 30 32 30 29 29 30 19 9 7 6 5 9 12 15
16 19 22 33 47 42 46 49 50 47 45 39 38 38 32 34 34 33 32 26 22 23 22 21 29 34 40 35 26 37 37 31 31 32 32 30 22 10 11 9 8 10 15 13 14
15 20 23 33 42 45 39 34 52 44 50 46 42 40 39 36 37 33 30 24 23 24 22 23 34 33 33 31 30 31 31 30 35 33 33 24 23 24 21 20 23 15 15 17 22
12 17 23 30 34 43 44 44 47 46 48 51 42 42 40 38 36 31 28 26 23 20 24 26 31 28 31 27 29 33 29 30 36 33 30 30 34 22 30 25 23 19 18 20 22
27 23 26 23 25 34 46 43 55 47 37 48 43 34 40 46 37 31 28 24 19 23 25 25 26 27 33 28 27 38 35 30 33 34 33 37 32 22 19 22 23 22 23 25 26
Wind_Direction
258 257 256 257 258 258 258 257 258 260 262 265 266 269 272 276 280 280 275 285 292 294 300 303 311 310 311 310 314 318 300 298 304 310 315 322 322 335 347 348 348 352 359 356 54
256 256 256 255 256 257 258 257 257 259 260 263 265 268 271 273 275 271 275 281 284 291 298 298 297 302 297 301 303 297 292 298 307 313 315 321 322 324 331 333 333 341 350 9 59
254 254 255 255 255 255 256 258 257 258 258 260 264 266 269 272 272 271 271 269 275 284 287 295 298 298 289 293 292 291 286 293 300 308 313 312 316 326 321 324 330 329 343 7 22
253 253 253 254 254 254 255 256 257 257 259 257 260 264 266 267 261 280 275 260 263 274 282 285 288 285 284 282 287 285 286 290 296 300 302 302 310 309 315 318 328 327 341 348 341
252 252 252 252 253 254 253 254 255 257 258 258 256 258 262 259 256 286 300 271 260 266 268 274 275 279 277 284 284 282 284 287 291 294 296 300 298 301 302 313 316 322 325 312 315
250 250 251 251 251 251 252 253 253 256 256 259 255 254 258 256 268 266 281 286 266 263 265 267 275 276 280 280 281 288 286 285 288 290 292 292 294 297 301 310 310 314 310 302 296
248 249 249 249 249 249 249 251 252 253 254 257 257 254 255 255 276 264 261 266 273 270 263 267 272 273 278 279 284 284 284 285 285 289 291 294 288 287 296 302 300 300 300 297 289
247 246 247 248 247 247 247 248 250 252 254 253 257 255 256 262 260 271 266 265 267 272 273 270 274 273 275 280 282 280 281 278 283 285 289 292 284 291 295 295 295 298 298 292 285
245 244 244 244 244 245 245 246 247 249 252 252 257 255 257 259 256 253 262 265 263 263 269 275 272 270 272 271 273 275 273 277 282 289 288 285 287 292 296 292 290 293 293 292 287
242 241 240 240 241 241 241 244 246 248 247 253 260 255 259 253 253 252 257 255 265 259 260 263 267 265 267 263 264 270 275 278 278 285 287 285 285 292 291 290 289 289 291 294 291
239 238 238 237 238 237 235 238 239 245 232 244 250 251 272 254 251 246 246 251 260 258 254 256 259 256 260 265 271 275 276 277 283 287 287 285 287 289 291 290 287 286 286 286 287
236 237 235 235 234 234 231 235 233 249 240 245 255 248 262 253 253 246 235 245 251 255 255 259 256 260 267 264 267 270 273 275 283 289 289 288 285 288 288 286 287 287 284 283 284
235 235 234 234 233 233 232 231 235 240 252 245 246 252 251 253 253 245 235 243 251 252 250 255 265 261 261 264 264 267 267 272 278 287 292 291 284 286 287 287 288 286 283 281 281
231 234 232 231 234 232 233 232 238 246 248 251 238 252 248 250 255 251 237 244 253 251 253 261 262 264 261 264 262 266 268 275 277 281 281 289 283 283 287 289 288 289 287 281 278
232 232 231 224 233 227 236 231 229 242 246 245 236 248 237 236 253 246 245 245 249 250 252 258 260 255 260 261 261 271 273 271 273 273 278 279 282 281 289 288 291 290 295 292 288
232 227 228 227 232 231 227 223 225 237 245 242 233 228 229 236 248 249 241 249 255 255 258 260 272 262 260 265 259 271 278 275 276 272 271 271 273 281 283 285 291 296 302 301 299
227 225 226 226 227 225 218 220 228 235 235 240 225 220 224 234 236 241 237 238 243 248 253 259 259 267 271 262 259 257 265 272 271 270 271 274 272 274 286 286 288 291 305 311 323
224 224 226 227 225 220 215 224 231 227 231 245 233 223 226 227 234 238 237 241 241 247 256 257 261 258 263 256 258 250 252 264 271 272 278 279 274 280 284 283 280 277 287 303 322
222 226 227 226 220 218 217 225 227 224 226 234 226 221 230 229 233 235 236 238 241 236 247 255 261 272 265 269 251 253 250 260 270 276 276 276 281 282 279 285 287 274 275 293 318
223 226 227 222 218 218 224 227 231 233 222 222 226 220 220 218 227 226 233 239 242 234 246 255 259 263 264 259 260 262 254 260 260 271 276 280 279 277 282 274 274 262 268 283 303
221 227 227 218 216 223 226 226 231 231 229 221 228 228 230 224 228 223 236 247 235 237 237 251 257 259 263 250 255 260 265 265 272 268 274 282 284 288 279 276 256 249 263 274 301
231 221 219 209 219 227 226 227 228 227 228 227 227 234 230 222 226 231 240 237 236 231 236 247 260 257 260 267 268 264 266 268 269 269 275 281 282 305 288 269 245 243 267 286 302
212 239 220 213 221 225 230 226 225 225 225 225 226 229 232 227 236 237 240 245 234 235 230 237 257 258 262 264 266 265 264 270 277 288 286 275 285 301 298 261 253 256 288 298 306
218 226 223 221 224 226 225 223 223 226 227 227 228 227 224 225 237 234 236 248 233 237 242 239 256 256 257 265 269 267 263 267 268 279 288 286 273 273 288 293 306 311 300 306 318
229 235 228 219 223 224 223 227 217 223 223 224 228 224 222 228 229 236 239 240 237 242 239 244 255 257 265 269 268 272 269 261 262 270 274 289 284 271 271 279 293 299 296 304 306
220 233 230 233 225 218 221 226 218 221 222 226 228 221 219 226 224 220 224 235 229 234 236 250 259 260 263 267 270 269 269 262 259 263 270 272 276 281 278 280 281 293 302 306 300
214 227 234 230 218 220 224 224 217 214 227 224 229 220 224 229 235 232 238 237 242 236 242 245 257 260 262 266 272 268 263 264 266 271 272 272 278 280 276 278 288 297 297 299 304